| time (UTC) | temp C | wind direction | speed KPH | gust KPH | rain 1hr cm | rain 24hr cm | rain mn cm | humidity % | barometer mb |
| 20260904112321 | 24 | 159 | 0.0 | 0.0 | 0.00 | 0.00 | 0.00 | 88 | 1017.3 |
| 20260904111816 | 24 | 159 | 0.0 | 0.0 | 0.00 | 0.00 | 0.00 | 89 | 1017.3 |
| 20260904111312 | 24 | 159 | 0.0 | 0.0 | 0.00 | 0.00 | 0.00 | 88 | 1017.2 |
| 20260904110808 | 24 | 159 | 0.0 | 0.0 | 0.00 | 0.00 | 0.00 | 88 | 1017.6 |
| 20260904110306 | 24 | 159 | 0.0 | 0.0 | 0.00 | 0.00 | 0.00 | 88 | 1017.4 |
| 20260904105801 | 24 | 159 | 0.0 | 0.0 | 0.00 | 0.00 | 0.00 | 88 | 1017.2 |
| 20260904105256 | 24 | 159 | 0.0 | 0.0 | 0.00 | 0.00 | 0.00 | 88 | 1017.2 |
| 20260904104751 | 24 | 159 | 0.0 | 0.0 | 0.00 | 0.00 | 0.00 | 88 | 1017.4 |
| 20260904104247 | 24 | 159 | 0.0 | 0.0 | 0.00 | 0.00 | 0.00 | 87 | 1017.4 |
| 20260904103744 | 25 | 159 | 0.0 | 0.0 | 0.00 | 0.00 | 0.00 | 87 | 1017.3 |
| 20260904103243 | 25 | 159 | 0.0 | 0.0 | 0.00 | 0.00 | 0.00 | 86 | 1017.3 |
| 20260904102739 | 25 | 159 | 0.0 | 0.0 | 0.00 | 0.00 | 0.00 | 86 | 1017.3 |
| 20260904102235 | 25 | 158 | 0.0 | 0.0 | 0.00 | 0.00 | 0.00 | 85 | 1017.1 |
| 20260904101731 | 25 | 159 | 0.0 | 0.0 | 0.00 | 0.00 | 0.00 | 85 | 1017.2 |
| 20260904101227 | 25 | 159 | 0.0 | 0.0 | 0.00 | 0.00 | 0.00 | 84 | 1017.1 |
| 20260904100722 | 25 | 159 | 0.0 | 0.0 | 0.00 | 0.00 | 0.00 | 83 | 1017.2 |
| 20260904100218 | 25 | 159 | 0.0 | 0.0 | 0.00 | 0.00 | 0.00 | 82 | 1017.2 |
| 20260904095717 | 25 | 159 | 0.0 | 0.0 | 0.00 | 0.00 | 0.00 | 82 | 1017.1 |
| 20260904095212 | 25 | 159 | 0.0 | 0.0 | 0.00 | 0.00 | 0.00 | 82 | 1017.2 |
| 20260904094707 | 25 | 159 | 0.0 | 0.0 | 0.00 | 0.00 | 0.00 | 82 | 1017.1 |
| 20260904094202 | 25 | 159 | 0.0 | 0.0 | 0.00 | 0.00 | 0.00 | 82 | 1017.1 |
| 20260904093659 | 25 | 159 | 0.0 | 0.0 | 0.00 | 0.00 | 0.00 | 81 | 1016.9 |
| 20260904093158 | 25 | 159 | 0.0 | 0.0 | 0.00 | 0.00 | 0.00 | 82 | 1017.0 |
| 20260904092655 | 25 | 159 | 0.0 | 0.0 | 0.00 | 0.00 | 0.00 | 82 | 1016.9 |
| 20260904092150 | 26 | 159 | 0.0 | 0.0 | 0.00 | 0.00 | 0.00 | 81 | 1016.8 |
| 20260904091646 | 25 | 159 | 0.0 | 0.0 | 0.00 | 0.00 | 0.00 | 80 | 1016.9 |
| 20260904091146 | 25 | 159 | 0.0 | 0.0 | 0.00 | 0.00 | 0.00 | 80 | 1016.9 |
| 20260904090642 | 25 | 159 | 0.0 | 0.0 | 0.00 | 0.00 | 0.00 | 81 | 1016.8 |
| 20260904090137 | 25 | 159 | 0.0 | 0.0 | 0.00 | 0.00 | 0.00 | 81 | 1016.9 |
| 20260904085632 | 25 | 159 | 0.0 | 0.0 | 0.00 | 0.00 | 0.00 | 82 | 1016.8 |
| 20260904085132 | 25 | 159 | 0.0 | 0.0 | 0.00 | 0.00 | 0.00 | 82 | 1016.5 |
| 20260904084627 | 25 | 159 | 0.0 | 0.0 | 0.00 | 0.00 | 0.00 | 82 | 1016.7 |
| 20260904084124 | 25 | 159 | 0.0 | 0.0 | 0.00 | 0.00 | 0.00 | 81 | 1016.6 |
| 20260904083620 | 26 | 159 | 0.0 | 0.0 | 0.00 | 0.00 | 0.00 | 81 | 1016.8 |
| 20260904083115 | 26 | 159 | 0.0 | 0.0 | 0.00 | 0.00 | 0.00 | 80 | 1016.5 |
| 20260904082610 | 26 | 159 | 0.0 | 0.0 | 0.00 | 0.00 | 0.00 | 80 | 1016.6 |
| 20260904082105 | 26 | 159 | 0.0 | 0.0 | 0.00 | 0.00 | 0.00 | 78 | 1016.7 |
| 20260904081601 | 26 | 159 | 0.0 | 0.0 | 0.00 | 0.00 | 0.00 | 77 | 1016.5 |
| 20260904081056 | 26 | 159 | 0.0 | 0.0 | 0.00 | 0.00 | 0.00 | 76 | 1016.8 |
| 20260904080551 | 26 | 159 | 0.0 | 0.0 | 0.00 | 0.00 | 0.00 | 76 | 1016.6 |
| 20260904080048 | 26 | 159 | 0.0 | 0.0 | 0.00 | 0.00 | 0.00 | 76 | 1016.5 |
| 20260904075544 | 26 | 159 | 0.0 | 0.0 | 0.00 | 0.00 | 0.00 | 76 | 1016.7 |
| 20260904075043 | 26 | 159 | 0.0 | 0.0 | 0.00 | 0.00 | 0.00 | 76 | 1016.5 |
| 20260904074543 | 26 | 159 | 0.0 | 0.0 | 0.00 | 0.00 | 0.00 | 77 | 1016.7 |
| 20260904074038 | 26 | 159 | 0.0 | 0.0 | 0.00 | 0.00 | 0.00 | 77 | 1016.5 |
| 20260904073533 | 27 | 159 | 0.0 | 0.0 | 0.00 | 0.00 | 0.00 | 76 | 1016.4 |
| 20260904073029 | 26 | 159 | 0.0 | 0.0 | 0.00 | 0.00 | 0.00 | 76 | 1016.7 |
| 20260904072525 | 26 | 159 | 0.0 | 0.0 | 0.00 | 0.00 | 0.00 | 76 | 1016.7 |
| 20260904072020 | 26 | 159 | 0.0 | 0.0 | 0.00 | 0.00 | 0.00 | 77 | 1016.2 |
| 20260904071515 | 26 | 159 | 0.0 | 0.0 | 0.00 | 0.00 | 0.00 | 77 | 1016.4 |
| 20260904071010 | 26 | 159 | 0.0 | 0.0 | 0.00 | 0.00 | 0.00 | 75 | 1016.6 |
| 20260904070509 | 26 | 152 | 0.0 | 0.0 | 0.00 | 0.00 | 0.00 | 77 | 1016.5 |
| 20260904070003 | 26 | 152 | 0.0 | 0.0 | 0.00 | 0.00 | 0.00 | 77 | 1016.5 |
| 20260904065459 | 27 | 152 | 0.0 | 0.0 | 0.00 | 0.00 | 0.00 | 77 | 1016.4 |
| 20260904064955 | 27 | 152 | 0.0 | 0.0 | 0.00 | 0.00 | 0.00 | 77 | 1016.6 |
| 20260904064451 | 27 | 152 | 0.0 | 0.0 | 0.00 | 0.00 | 0.00 | 75 | 1016.6 |
| 20260904063951 | 27 | 152 | 0.0 | 0.0 | 0.00 | 0.00 | 0.00 | 75 | 1016.7 |
| 20260904063448 | 27 | 152 | 0.0 | 1.6 | 0.00 | 0.00 | 0.00 | 75 | 1016.7 |
| 20260904062942 | 27 | 152 | 0.0 | 0.0 | 0.00 | 0.00 | 0.00 | 74 | 1016.8 |
| 20260904062438 | 27 | 152 | 0.0 | 0.0 | 0.00 | 0.00 | 0.00 | 75 | 1016.8 |
| 20260904061934 | 27 | 152 | 0.0 | 0.0 | 0.00 | 0.00 | 0.00 | 73 | 1016.7 |
| 20260904061430 | 27 | 152 | 0.0 | 0.0 | 0.00 | 0.00 | 0.00 | 72 | 1016.7 |
| 20260904060926 | 27 | 152 | 0.0 | 0.0 | 0.00 | 0.00 | 0.00 | 73 | 1016.9 |
| 20260904060422 | 27 | 152 | 0.0 | 0.0 | 0.00 | 0.00 | 0.00 | 72 | 1017.0 |
| 20260904055917 | 27 | 152 | 0.0 | 0.0 | 0.00 | 0.00 | 0.00 | 72 | 1016.9 |
| 20260904055413 | 27 | 152 | 1.6 | 1.6 | 0.00 | 0.00 | 0.00 | 73 | 1016.8 |
| 20260904054908 | 27 | 136 | 0.0 | 0.0 | 0.00 | 0.00 | 0.00 | 74 | 1016.8 |
| 20260904054404 | 27 | 136 | 0.0 | 0.0 | 0.00 | 0.00 | 0.00 | 73 | 1016.9 |
| 20260904053859 | 28 | 136 | 0.0 | 0.0 | 0.00 | 0.00 | 0.00 | 72 | 1016.7 |
| 20260904053358 | 28 | 136 | 0.0 | 0.0 | 0.00 | 0.00 | 0.00 | 72 | 1016.9 |
| 20260904052854 | 28 | 136 | 0.0 | 0.0 | 0.00 | 0.00 | 0.00 | 71 | 1016.9 |
| 20260904052351 | 28 | 136 | 0.0 | 0.0 | 0.00 | 0.00 | 0.00 | 71 | 1016.9 |
| 20260904051847 | 28 | 136 | 0.0 | 0.0 | 0.00 | 0.00 | 0.00 | 70 | 1017.0 |
| 20260904051343 | 28 | 136 | 0.0 | 0.0 | 0.00 | 0.00 | 0.00 | 69 | 1016.9 |
| 20260904050843 | 28 | 136 | 0.0 | 1.6 | 0.00 | 0.00 | 0.00 | 69 | 1017.1 |
| 20260904050340 | 28 | 128 | 0.0 | 1.6 | 0.00 | 0.00 | 0.00 | 69 | 1017.0 |
| 20260904045839 | 28 | 128 | 0.0 | 1.6 | 0.00 | 0.00 | 0.00 | 69 | 1017.1 |
| 20260904045335 | 28 | 127 | 0.0 | 1.6 | 0.00 | 0.00 | 0.00 | 69 | 1017.1 |
| 20260904044834 | 28 | 127 | 0.0 | 1.6 | 0.00 | 0.00 | 0.00 | 69 | 1017.0 |
| 20260904044331 | 28 | 134 | 1.6 | 3.2 | 0.00 | 0.00 | 0.00 | 69 | 1016.9 |
| 20260904043827 | 28 | 134 | 1.6 | 1.6 | 0.00 | 0.00 | 0.00 | 70 | 1017.1 |
| 20260904043323 | 28 | 134 | 1.6 | 3.2 | 0.00 | 0.00 | 0.00 | 70 | 1017.3 |
| 20260904042818 | 28 | 134 | 1.6 | 1.6 | 0.00 | 0.00 | 0.00 | 71 | 1017.1 |
| 20260904042314 | 28 | 134 | 1.6 | 1.6 | 0.00 | 0.00 | 0.00 | 72 | 1017.2 |
| 20260904041814 | 28 | 134 | 1.6 | 1.6 | 0.00 | 0.00 | 0.00 | 72 | 1017.0 |
| 20260904041310 | 28 | 134 | 1.6 | 1.6 | 0.00 | 0.00 | 0.00 | 72 | 1016.9 |
| 20260904040806 | 28 | 134 | 0.0 | 0.0 | 0.00 | 0.00 | 0.00 | 72 | 1017.1 |
| 20260904040301 | 28 | 134 | 0.0 | 0.0 | 0.00 | 0.00 | 0.00 | 72 | 1017.1 |
| 20260904035757 | 28 | 134 | 0.0 | 0.0 | 0.00 | 0.00 | 0.00 | 72 | 1017.2 |
| 20260904035253 | 28 | 134 | 0.0 | 1.6 | 0.00 | 0.00 | 0.00 | 72 | 1017.1 |
| 20260904034751 | 28 | 134 | 0.0 | 0.0 | 0.00 | 0.00 | 0.00 | 73 | 1017.2 |
| 20260904034247 | 28 | 134 | 1.6 | 0.0 | 0.00 | 0.00 | 0.00 | 73 | 1017.1 |
| 20260904033743 | 28 | 134 | 0.0 | 0.0 | 0.00 | 0.00 | 0.00 | 72 | 1017.3 |
| 20260904033240 | 28 | 134 | 0.0 | 0.0 | 0.00 | 0.00 | 0.00 | 72 | 1017.2 |
| 20260904032735 | 28 | 134 | 0.0 | 0.0 | 0.00 | 0.00 | 0.00 | 71 | 1017.3 |
| 20260904032235 | 29 | 134 | 0.0 | 0.0 | 0.00 | 0.00 | 0.00 | 71 | 1017.2 |
| 20260904031729 | 29 | 134 | 0.0 | 0.0 | 0.00 | 0.00 | 0.00 | 70 | 1017.2 |
| 20260904031225 | 29 | 134 | 0.0 | 0.0 | 0.00 | 0.00 | 0.00 | 69 | 1017.2 |
| 20260904030720 | 30 | 134 | 1.6 | 1.6 | 0.00 | 0.00 | 0.00 | 68 | 1017.2 |
| 20260904030215 | 30 | 134 | 0.0 | 0.0 | 0.00 | 0.00 | 0.00 | 67 | 1017.4 |
| 20260904025712 | 30 | 134 | 1.6 | 1.6 | 0.00 | 0.00 | 0.00 | 67 | 1017.2 |
| 20260904025207 | 30 | 134 | 1.6 | 1.6 | 0.00 | 0.00 | 0.00 | 66 | 1017.3 |
| 20260904024702 | 30 | 133 | 1.6 | 1.6 | 0.00 | 0.00 | 0.00 | 65 | 1017.2 |
| 20260904024157 | 30 | 133 | 1.6 | 1.6 | 0.00 | 0.00 | 0.00 | 65 | 1017.1 |
| 20260904023653 | 30 | 134 | 0.0 | 3.2 | 0.00 | 0.00 | 0.00 | 65 | 1017.1 |
| 20260904023149 | 30 | 125 | 1.6 | 3.2 | 0.00 | 0.00 | 0.00 | 64 | 1017.0 |
| 20260904022649 | 30 | 132 | 1.6 | 3.2 | 0.00 | 0.00 | 0.00 | 64 | 1016.9 |
| 20260904022146 | 30 | 127 | 1.6 | 1.6 | 0.00 | 0.00 | 0.00 | 65 | 1016.9 |
| 20260904021642 | 30 | 127 | 1.6 | 3.2 | 0.00 | 0.00 | 0.00 | 65 | 1016.9 |
| 20260904021136 | 30 | 130 | 1.6 | 1.6 | 0.00 | 0.00 | 0.00 | 64 | 1017.0 |
| 20260904020632 | 30 | 135 | 1.6 | 4.8 | 0.00 | 0.00 | 0.00 | 65 | 1016.9 |
| 20260904020121 | 30 | 128 | 3.2 | 3.2 | 0.00 | 0.00 | 0.00 | 66 | 1016.8 |
| 20260904015621 | 30 | 129 | 3.2 | 4.8 | 0.00 | 0.00 | 0.00 | 66 | 1016.9 |
| 20260904015120 | 30 | 126 | 1.6 | 3.2 | 0.00 | 0.00 | 0.00 | 67 | 1016.9 |
| 20260904014619 | 30 | 134 | 1.6 | 4.8 | 0.00 | 0.00 | 0.00 | 67 | 1016.7 |
| 20260904014114 | 31 | 129 | 1.6 | 1.6 | 0.00 | 0.00 | 0.00 | 68 | 1016.7 |
| 20260904013611 | 30 | 134 | 3.2 | 3.2 | 0.00 | 0.00 | 0.00 | 68 | 1016.7 |
| 20260904013107 | 31 | 131 | 0.0 | 1.6 | 0.00 | 0.00 | 0.00 | 69 | 1016.9 |
| 20260904012602 | 31 | 131 | 0.0 | 1.6 | 0.00 | 0.00 | 0.00 | 68 | 1016.8 |
| 20260904012102 | 31 | 131 | 1.6 | 3.2 | 0.00 | 0.00 | 0.00 | 68 | 1016.7 |
| 20260904011601 | 31 | 138 | 0.0 | 0.0 | 0.00 | 0.00 | 0.00 | 68 | 1016.6 |
| 20260904011056 | 31 | 138 | 1.6 | 1.6 | 0.00 | 0.00 | 0.00 | 68 | 1016.7 |
| 20260904010552 | 31 | 139 | 1.6 | 1.6 | 0.00 | 0.00 | 0.00 | 68 | 1016.6 |
| 20260904010050 | 31 | 139 | 0.0 | 1.6 | 0.00 | 0.00 | 0.00 | 68 | 1016.5 |
| 20260904005548 | 31 | 142 | 1.6 | 3.2 | 0.00 | 0.00 | 0.00 | 68 | 1016.5 |
| 20260904005044 | 31 | 142 | 0.0 | 0.0 | 0.00 | 0.00 | 0.00 | 68 | 1016.3 |
| 20260904004540 | 31 | 142 | 0.0 | 0.0 | 0.00 | 0.00 | 0.00 | 68 | 1016.4 |
| 20260904004040 | 31 | 142 | 0.0 | 0.0 | 0.00 | 0.00 | 0.00 | 67 | 1016.4 |
| 20260904003536 | 31 | 142 | 0.0 | 0.0 | 0.00 | 0.00 | 0.00 | 67 | 1016.5 |
| 20260904003031 | 31 | 142 | 0.0 | 0.0 | 0.00 | 0.00 | 0.00 | 66 | 1016.5 |
| 20260904002527 | 32 | 142 | 0.0 | 0.0 | 0.00 | 0.00 | 0.00 | 64 | 1016.4 |
| 20260904002026 | 32 | 142 | 0.0 | 0.0 | 0.00 | 0.00 | 0.00 | 63 | 1016.4 |
| 20260904001522 | 32 | 142 | 0.0 | 0.0 | 0.00 | 0.00 | 0.00 | 62 | 1016.4 |
| 20260904001021 | 32 | 142 | 1.6 | 3.2 | 0.00 | 0.00 | 0.00 | 61 | 1016.4 |
| 20260904000521 | 32 | 142 | 0.0 | 0.0 | 0.00 | 0.00 | 0.00 | 61 | 1016.4 |
| 20260904000017 | 32 | 142 | 0.0 | 0.0 | 0.00 | 0.00 | 0.00 | 60 | 1016.3 |
| 20260903235512 | 33 | 142 | 0.0 | 0.0 | 0.00 | 0.00 | 0.00 | 60 | 1016.4 |
| 20260903235007 | 33 | 142 | 0.0 | 0.0 | 0.00 | 0.00 | 0.00 | 59 | 1016.1 |
| 20260903234503 | 33 | 142 | 1.6 | 1.6 | 0.00 | 0.00 | 0.00 | 58 | 1016.3 |
| 20260903233958 | 33 | 143 | 0.0 | 1.6 | 0.00 | 0.00 | 0.00 | 57 | 1016.0 |
| 20260903233454 | 33 | 138 | 1.6 | 1.6 | 0.00 | 0.00 | 0.00 | 57 | 1016.1 |
| 20260903232949 | 33 | 138 | 1.6 | 1.6 | 0.00 | 0.00 | 0.00 | 56 | 1016.1 |
| 20260903232445 | 34 | 137 | 0.0 | 0.0 | 0.00 | 0.00 | 0.00 | 55 | 1016.1 |
| 20260903231944 | 34 | 137 | 0.0 | 1.6 | 0.00 | 0.00 | 0.00 | 54 | 1016.1 |
| 20260903231440 | 34 | 123 | 1.6 | 3.2 | 0.00 | 0.00 | 0.00 | 53 | 1016.1 |
| 20260903230939 | 34 | 135 | 1.6 | 3.2 | 0.00 | 0.00 | 0.00 | 52 | 1016.0 |
| 20260903230435 | 35 | 129 | 1.6 | 3.2 | 0.00 | 0.00 | 0.00 | 51 | 1015.9 |
| 20260903225932 | 35 | 136 | 3.2 | 3.2 | 0.00 | 0.00 | 0.00 | 47 | 1015.9 |
| 20260903225427 | 35 | 135 | 1.6 | 1.6 | 0.00 | 0.00 | 0.00 | 48 | 1015.9 |
| 20260903224923 | 35 | 143 | 0.0 | 0.0 | 0.00 | 0.00 | 0.00 | 47 | 1016.0 |
| 20260903224419 | 35 | 143 | 0.0 | 1.6 | 0.00 | 0.00 | 0.00 | 48 | 1016.0 |
| 20260903223915 | 35 | 143 | 1.6 | 1.6 | 0.00 | 0.00 | 0.00 | 49 | 1016.0 |
| 20260903223414 | 35 | 140 | 1.6 | 1.6 | 0.00 | 0.00 | 0.00 | 47 | 1016.0 |
| 20260903222913 | 35 | 146 | 0.0 | 1.6 | 0.00 | 0.00 | 0.00 | 48 | 1016.0 |
| 20260903222409 | 34 | 146 | 0.0 | 0.0 | 0.00 | 0.00 | 0.00 | 52 | 1016.1 |
| 20260903221903 | 34 | 145 | 0.0 | 1.6 | 0.00 | 0.00 | 0.00 | 50 | 1016.1 |
| 20260903221402 | 34 | 138 | 1.6 | 1.6 | 0.00 | 0.00 | 0.00 | 49 | 1015.9 |
| 20260903220900 | 35 | 131 | 1.6 | 1.6 | 0.00 | 0.00 | 0.00 | 48 | 1016.1 |
| 20260903220354 | 35 | 148 | 0.0 | 1.6 | 0.00 | 0.00 | 0.00 | 48 | 1015.9 |
| 20260903215852 | 35 | 137 | 3.2 | 3.2 | 0.00 | 0.00 | 0.00 | 47 | 1015.9 |
| 20260903215349 | 35 | 143 | 3.2 | 3.2 | 0.00 | 0.00 | 0.00 | 47 | 1016.1 |
| 20260903214847 | 35 | 139 | 0.0 | 3.2 | 0.00 | 0.00 | 0.00 | 48 | 1015.9 |
| 20260903214343 | 35 | 149 | 1.6 | 3.2 | 0.00 | 0.00 | 0.00 | 45 | 1016.2 |
| 20260903213842 | 35 | 137 | 0.0 | 3.2 | 0.00 | 0.00 | 0.00 | 45 | 1016.0 |
| 20260903213338 | 36 | 178 | 0.0 | 1.6 | 0.00 | 0.00 | 0.00 | 45 | 1016.3 |
| 20260903212834 | 36 | 291 | 3.2 | 3.2 | 0.00 | 0.00 | 0.00 | 43 | 1016.0 |
| 20260903212330 | 36 | 141 | 1.6 | 1.6 | 0.00 | 0.00 | 0.00 | 44 | 1016.3 |
| 20260903211829 | 36 | 117 | 3.2 | 4.8 | 0.00 | 0.00 | 0.00 | 43 | 1016.2 |
| 20260903211326 | 36 | 174 | 0.0 | 1.6 | 0.00 | 0.00 | 0.00 | 42 | 1016.3 |
| 20260903210821 | 36 | 278 | 1.6 | 3.2 | 0.00 | 0.00 | 0.00 | 44 | 1016.4 |
| 20260903210316 | 36 | 326 | 3.2 | 4.8 | 0.00 | 0.00 | 0.00 | 42 | 1016.4 |
| 20260903205816 | 36 | 285 | 4.8 | 6.4 | 0.00 | 0.00 | 0.00 | 42 | 1016.6 |
| 20260903205316 | 36 | 350 | 3.2 | 4.8 | 0.00 | 0.00 | 0.00 | 42 | 1016.5 |
| 20260903204811 | 36 | 282 | 0.0 | 1.6 | 0.00 | 0.00 | 0.00 | 42 | 1016.6 |
| 20260903204307 | 36 | 274 | 0.0 | 3.2 | 0.00 | 0.00 | 0.00 | 44 | 1016.5 |
| 20260903203803 | 36 | 249 | 0.0 | 3.2 | 0.00 | 0.00 | 0.00 | 44 | 1016.5 |
| 20260903203258 | 36 | 182 | 1.6 | 3.2 | 0.00 | 0.00 | 0.00 | 45 | 1016.6 |
| 20260903202756 | 36 | 136 | 3.2 | 3.2 | 0.00 | 0.00 | 0.00 | 44 | 1016.7 |
| 20260903202254 | 36 | 129 | 4.8 | 6.4 | 0.00 | 0.00 | 0.00 | 43 | 1016.6 |
| 20260903201752 | 36 | 298 | 3.2 | 3.2 | 0.00 | 0.00 | 0.00 | 43 | 1016.8 |
| 20260903201248 | 36 | 149 | 4.8 | 4.8 | 0.00 | 0.00 | 0.00 | 43 | 1016.9 |
| 20260903200747 | 36 | 138 | 3.2 | 4.8 | 0.00 | 0.00 | 0.00 | 44 | 1016.8 |
| 20260903200243 | 36 | 135 | 1.6 | 3.2 | 0.00 | 0.00 | 0.00 | 45 | 1016.8 |
| 20260903195737 | 35 | 116 | 1.6 | 3.2 | 0.00 | 0.00 | 0.00 | 45 | 1017.0 |
| 20260903195234 | 36 | 142 | 3.2 | 4.8 | 0.00 | 0.00 | 0.00 | 44 | 1016.9 |
| 20260903194733 | 36 | 145 | 3.2 | 6.4 | 0.00 | 0.00 | 0.00 | 44 | 1017.1 |
| 20260903194230 | 36 | 137 | 3.2 | 6.4 | 0.00 | 0.00 | 0.00 | 45 | 1017.3 |
| 20260903193730 | 36 | 109 | 4.8 | 6.4 | 0.00 | 0.00 | 0.00 | 45 | 1017.1 |
| 20260903193225 | 36 | 155 | 1.6 | 4.8 | 0.00 | 0.00 | 0.00 | 43 | 1017.2 |
| 20260903192721 | 36 | 159 | 8.0 | 9.7 | 0.00 | 0.00 | 0.00 | 43 | 1017.2 |
| 20260903192217 | 36 | 110 | 1.6 | 3.2 | 0.00 | 0.00 | 0.00 | 43 | 1017.4 |
| 20260903191713 | 36 | 110 | 1.6 | 3.2 | 0.00 | 0.00 | 0.00 | 44 | 1017.0 |
| 20260903191208 | 36 | 133 | 0.0 | 3.2 | 0.00 | 0.00 | 0.00 | 45 | 1017.1 |
| 20260903190702 | 36 | 15 | 1.6 | 3.2 | 0.00 | 0.00 | 0.00 | 43 | 1017.4 |
| 20260903190202 | 36 | 219 | 3.2 | 3.2 | 0.00 | 0.00 | 0.00 | 43 | 1017.5 |
| 20260903185657 | 36 | 138 | 0.0 | 6.4 | 0.00 | 0.00 | 0.00 | 42 | 1017.6 |
| 20260903185152 | 36 | 127 | 3.2 | 4.8 | 0.00 | 0.00 | 0.00 | 42 | 1017.6 |
| 20260903184649 | 36 | 31 | 1.6 | 3.2 | 0.00 | 0.00 | 0.00 | 43 | 1017.6 |
| 20260903184144 | 36 | 350 | 3.2 | 4.8 | 0.00 | 0.00 | 0.00 | 43 | 1017.7 |
| 20260903183643 | 36 | 219 | 3.2 | 3.2 | 0.00 | 0.00 | 0.00 | 43 | 1017.7 |
| 20260903183138 | 36 | 132 | 3.2 | 4.8 | 0.00 | 0.00 | 0.00 | 42 | 1017.8 |
| 20260903182637 | 36 | 137 | 3.2 | 6.4 | 0.00 | 0.00 | 0.00 | 43 | 1017.6 |
| 20260903182133 | 36 | 236 | 1.6 | 4.8 | 0.00 | 0.00 | 0.00 | 44 | 1017.8 |
| 20260903181631 | 36 | 107 | 3.2 | 4.8 | 0.00 | 0.00 | 0.00 | 43 | 1017.8 |
| 20260903181126 | 36 | 296 | 6.4 | 9.7 | 0.00 | 0.00 | 0.00 | 42 | 1017.8 |
| 20260903180622 | 36 | 88 | 0.0 | 1.6 | 0.00 | 0.00 | 0.00 | 43 | 1017.8 |
| 20260903180116 | 36 | 266 | 4.8 | 4.8 | 0.00 | 0.00 | 0.00 | 42 | 1018.1 |
| 20260903175615 | 36 | 139 | 1.6 | 4.8 | 0.00 | 0.00 | 0.00 | 43 | 1018.1 |
| 20260903175114 | 36 | 191 | 0.0 | 1.6 | 0.00 | 0.00 | 0.00 | 44 | 1017.9 |
| 20260903174609 | 36 | 284 | 4.8 | 4.8 | 0.00 | 0.00 | 0.00 | 41 | 1018.2 |
| 20260903174104 | 36 | 135 | 3.2 | 4.8 | 0.00 | 0.00 | 0.00 | 43 | 1018.3 |
| 20260903173559 | 36 | 134 | 6.4 | 9.7 | 0.00 | 0.00 | 0.00 | 40 | 1018.3 |
| 20260903173056 | 36 | 292 | 3.2 | 4.8 | 0.00 | 0.00 | 0.00 | 43 | 1018.4 |
| 20260903172550 | 36 | 220 | 8.0 | 12.9 | 0.00 | 0.00 | 0.00 | 41 | 1018.3 |
| 20260903172046 | 36 | 239 | 3.2 | 9.7 | 0.00 | 0.00 | 0.00 | 42 | 1018.4 |
| 20260903171546 | 36 | 139 | 1.6 | 3.2 | 0.00 | 0.00 | 0.00 | 45 | 1018.4 |
| 20260903171041 | 35 | 138 | 1.6 | 4.8 | 0.00 | 0.00 | 0.00 | 46 | 1018.3 |
| 20260903170540 | 35 | 117 | 1.6 | 4.8 | 0.00 | 0.00 | 0.00 | 44 | 1018.5 |
| 20260903170036 | 36 | 131 | 6.4 | 6.4 | 0.00 | 0.00 | 0.00 | 45 | 1018.5 |
| 20260903165533 | 36 | 357 | 1.6 | 6.4 | 0.00 | 0.00 | 0.00 | 47 | 1018.5 |
| 20260903165029 | 35 | 182 | 1.6 | 4.8 | 0.00 | 0.00 | 0.00 | 46 | 1018.4 |
| 20260903164529 | 35 | 90 | 1.6 | 4.8 | 0.00 | 0.00 | 0.00 | 48 | 1018.5 |
| 20260903164024 | 36 | 183 | 1.6 | 3.2 | 0.00 | 0.00 | 0.00 | 50 | 1018.7 |
| 20260903163520 | 35 | 167 | 1.6 | 1.6 | 0.00 | 0.00 | 0.00 | 50 | 1018.7 |
| 20260903163015 | 35 | 131 | 1.6 | 3.2 | 0.00 | 0.00 | 0.00 | 51 | 1018.6 |
| 20260903162512 | 36 | 117 | 0.0 | 0.0 | 0.00 | 0.00 | 0.00 | 51 | 1018.7 |
| 20260903162007 | 35 | 126 | 0.0 | 1.6 | 0.00 | 0.00 | 0.00 | 50 | 1018.8 |
| 20260903161503 | 35 | 238 | 1.6 | 1.6 | 0.00 | 0.00 | 0.00 | 51 | 1018.9 |
| 20260903160959 | 35 | 128 | 1.6 | 4.8 | 0.00 | 0.00 | 0.00 | 54 | 1018.9 |
| 20260903160457 | 35 | 138 | 3.2 | 4.8 | 0.00 | 0.00 | 0.00 | 52 | 1019.0 |
| 20260903155957 | 35 | 118 | 3.2 | 4.8 | 0.00 | 0.00 | 0.00 | 53 | 1019.0 |
| 20260903155456 | 34 | 219 | 1.6 | 1.6 | 0.00 | 0.00 | 0.00 | 54 | 1019.0 |
| 20260903154953 | 34 | 143 | 1.6 | 1.6 | 0.00 | 0.00 | 0.00 | 55 | 1019.0 |
| 20260903154448 | 34 | 258 | 3.2 | 3.2 | 0.00 | 0.00 | 0.00 | 56 | 1019.0 |
| 20260903153944 | 33 | 122 | 0.0 | 1.6 | 0.00 | 0.00 | 0.00 | 57 | 1019.2 |
| 20260903153439 | 33 | 167 | 4.8 | 4.8 | 0.00 | 0.00 | 0.00 | 55 | 1019.0 |
| 20260903152935 | 33 | 136 | 1.6 | 1.6 | 0.00 | 0.00 | 0.00 | 56 | 1019.0 |
| 20260903152431 | 33 | 136 | 3.2 | 4.8 | 0.00 | 0.00 | 0.00 | 57 | 1019.1 |
| 20260903151927 | 33 | 149 | 3.2 | 4.8 | 0.00 | 0.00 | 0.00 | 56 | 1019.0 |
| 20260903151421 | 33 | 138 | 1.6 | 3.2 | 0.00 | 0.00 | 0.00 | 57 | 1019.1 |
| 20260903150916 | 32 | 298 | 3.2 | 3.2 | 0.00 | 0.00 | 0.00 | 57 | 1018.9 |
| 20260903150410 | 32 | 280 | 3.2 | 3.2 | 0.00 | 0.00 | 0.00 | 57 | 1019.0 |
| 20260903145905 | 32 | 339 | 1.6 | 3.2 | 0.00 | 0.00 | 0.00 | 59 | 1018.9 |
| 20260903145401 | 32 | 167 | 1.6 | 1.6 | 0.00 | 0.00 | 0.00 | 61 | 1018.9 |
| 20260903144859 | 31 | 129 | 0.0 | 1.6 | 0.00 | 0.00 | 0.00 | 63 | 1018.8 |
| 20260903144354 | 31 | 298 | 3.2 | 3.2 | 0.00 | 0.00 | 0.00 | 62 | 1019.0 |
| 20260903143850 | 31 | 24 | 0.0 | 0.0 | 0.00 | 0.00 | 0.00 | 64 | 1019.0 |
| 20260903143347 | 30 | 181 | 1.6 | 3.2 | 0.00 | 0.00 | 0.00 | 66 | 1018.9 |
| 20260903142847 | 30 | 280 | 0.0 | 1.6 | 0.00 | 0.00 | 0.00 | 66 | 1019.0 |
| 20260903142343 | 30 | 169 | 1.6 | 1.6 | 0.00 | 0.00 | 0.00 | 66 | 1019.1 |
| 20260903141839 | 30 | 300 | 1.6 | 4.8 | 0.00 | 0.00 | 0.00 | 66 | 1019.2 |
| 20260903141336 | 30 | 279 | 3.2 | 4.8 | 0.00 | 0.00 | 0.00 | 66 | 1019.1 |
| 20260903140836 | 29 | 268 | 1.6 | 3.2 | 0.00 | 0.00 | 0.00 | 68 | 1019.2 |
| 20260903140331 | 29 | 286 | 4.8 | 4.8 | 0.00 | 0.00 | 0.00 | 69 | 1019.1 |
| 20260903135827 | 29 | 28 | 0.0 | 3.2 | 0.00 | 0.00 | 0.00 | 70 | 1019.1 |
| 20260903135322 | 28 | 287 | 0.0 | 4.8 | 0.00 | 0.00 | 0.00 | 71 | 1019.0 |
| 20260903134820 | 28 | 155 | 0.0 | 1.6 | 0.00 | 0.00 | 0.00 | 72 | 1019.1 |
| 20260903134316 | 28 | 139 | 0.0 | 0.0 | 0.00 | 0.00 | 0.00 | 73 | 1019.1 |
| 20260903133814 | 28 | 137 | 3.2 | 4.8 | 0.00 | 0.00 | 0.00 | 72 | 1018.9 |
| 20260903133310 | 28 | 141 | 3.2 | 4.8 | 0.00 | 0.00 | 0.00 | 72 | 1019.3 |
| 20260903132810 | 27 | 147 | 0.0 | 0.0 | 0.00 | 0.00 | 0.00 | 73 | 1019.2 |
| 20260903132306 | 27 | 139 | 1.6 | 1.6 | 0.00 | 0.00 | 0.00 | 74 | 1019.1 |
| 20260903131801 | 27 | 91 | 3.2 | 3.2 | 0.00 | 0.00 | 0.00 | 74 | 1019.0 |
| 20260903131300 | 27 | 160 | 3.2 | 4.8 | 0.00 | 0.00 | 0.00 | 74 | 1019.3 |
| 20260903130754 | 27 | 138 | 0.0 | 1.6 | 0.00 | 0.00 | 0.00 | 74 | 1019.1 |
| 20260903130249 | 27 | 128 | 3.2 | 6.4 | 0.00 | 0.00 | 0.00 | 74 | 1019.3 |
| 20260903125748 | 27 | 128 | 1.6 | 3.2 | 0.00 | 0.00 | 0.00 | 75 | 1019.1 |
| 20260903125243 | 27 | 173 | 1.6 | 4.8 | 0.00 | 0.00 | 0.00 | 75 | 1019.1 |
| 20260903124742 | 26 | 144 | 1.6 | 1.6 | 0.00 | 0.00 | 0.00 | 75 | 1019.2 |
| 20260903124238 | 26 | 147 | 3.2 | 3.2 | 0.00 | 0.00 | 0.00 | 75 | 1019.2 |
| 20260903123736 | 26 | 158 | 0.0 | 1.6 | 0.00 | 0.00 | 0.00 | 76 | 1019.3 |
| 20260903123236 | 26 | 137 | 0.0 | 1.6 | 0.00 | 0.00 | 0.00 | 76 | 1019.3 |
| 20260903122735 | 26 | 137 | 3.2 | 3.2 | 0.00 | 0.00 | 0.00 | 76 | 1019.1 |
| 20260903122230 | 26 | 193 | 0.0 | 1.6 | 0.00 | 0.00 | 0.00 | 77 | 1019.2 |
| 20260903121728 | 26 | 165 | 0.0 | 0.0 | 0.00 | 0.00 | 0.00 | 78 | 1018.9 |
| 20260903121224 | 25 | 163 | 0.0 | 1.6 | 0.00 | 0.00 | 0.00 | 79 | 1018.8 |
| 20260903120724 | 25 | 171 | 0.0 | 0.0 | 0.00 | 0.00 | 0.00 | 80 | 1019.2 |
| 20260903120218 | 25 | 174 | 1.6 | 1.6 | 0.00 | 0.00 | 0.00 | 79 | 1018.7 |
| 20260903115717 | 25 | 177 | 0.0 | 0.0 | 0.00 | 0.00 | 0.00 | 80 | 1019.0 |
| 20260903115213 | 25 | 177 | 0.0 | 0.0 | 0.00 | 0.00 | 0.00 | 80 | 1018.8 |
| 20260903114712 | 25 | 177 | 0.0 | 0.0 | 0.00 | 0.00 | 0.00 | 80 | 1019.0 |
| 20260903114209 | 25 | 177 | 0.0 | 0.0 | 0.00 | 0.00 | 0.00 | 81 | 1018.9 |
| 20260903113709 | 25 | 177 | 0.0 | 0.0 | 0.00 | 0.00 | 0.00 | 80 | 1018.8 |
| 20260903113205 | 25 | 178 | 0.0 | 0.0 | 0.00 | 0.00 | 0.00 | 81 | 1018.8 |
| 20260903112701 | 25 | 178 | 0.0 | 0.0 | 0.00 | 0.00 | 0.00 | 80 | 1018.6 |